[[{"header":{"parameterUnit":"m.s-1","parameterCategory":1,"la1":30.2991,"la2":30.254,"lo1":-89.0895,"lo2":-89.0444,"dy":0.0017,"dx":0.0017,"nx":28,"ny":28,"refTime":"2025-09-15T03:00:00:Z","depth":0,"parameterNumber":2,"parameterNumberName":"U-component_of_WINDS"},"data":[0,0,0,0,0,0,0,0,0,0,0,0,0,0,0,0,0,0,0,0,0,0,0,0,0,0,0,0,0,0,0,0,0,0,0,0,0,0,0,0,0,0,0,0,0,0,0,0,0,0,0,0,0,0,0,0,0,0,-1.4537,-1.4537,0,-1.4614,-1.4615,-1.4616,-1.4619,-1.4618,-1.4617,-1.4616,-1.4696,-1.4699,-1.4702,0,0,0,0,0,0,0,0,0,0,0,0,0,-1.4392,-1.4395,-1.4536,-1.4537,-1.4538,-1.4614,-1.4615,-1.4616,-1.4619,-1.4618,-1.4616,-1.4615,-1.4695,-1.4699,-1.4703,0,0,0,0,0,0,0,0,0,0,0,0,0,-1.4461,-1.4395,-1.4536,-1.4549,-1.4551,-1.4614,-1.4615,-1.4616,-1.4619,-1.4618,-1.4616,-1.4615,-1.4694,-1.4699,-1.4703,-1.4759,0,0,-1.4717,-1.4719,0,0,0,0,0,0,0,0,-1.4457,-1.4466,-1.4546,-1.4548,-1.455,-1.4605,-1.4594,-1.4664,-1.4619,-1.4593,-1.4616,-1.4614,-1.4667,-1.4674,-1.4692,-1.4763,-1.4767,-1.4717,-1.472,-1.4722,-1.4723,0,0,0,0,0,0,0,-1.4452,-1.4463,-1.4567,-1.4547,-1.455,-1.4551,-1.4559,-1.4607,-1.4637,-1.4595,-1.4596,-1.4605,-1.4668,-1.4687,-1.4694,-1.4768,-1.4717,-1.4721,-1.4724,-1.4726,-1.489,-1.4891,0,0,0,0,0,0,-1.4445,-1.4459,-1.4565,-1.457,-1.4499,-1.4555,-1.4564,-1.4589,-1.4637,-1.4643,-1.4606,-1.4605,-1.468,-1.4688,-1.4696,-1.4766,-1.4722,-1.4726,-1.4729,-1.4888,-1.489,-1.4892,0,0,0,0,0,0,-1.4442,-1.4454,-1.4562,-1.4514,-1.4528,-1.4559,-1.4587,-1.4591,-1.461,-1.4645,-1.465,-1.462,-1.4679,-1.469,-1.4744,-1.4768,-1.4728,-1.4732,-1.4886,-1.4889,-1.4891,-1.4904,0,0,0,0,0,0,-1.4437,-1.4453,-1.4474,-1.4515,-1.4531,-1.4607,-1.4588,-1.4594,-1.4618,-1.4617,-1.4659,-1.4665,-1.4679,-1.4737,-1.4748,-1.4774,-1.4736,-1.4884,-1.4887,-1.489,-1.4902,-1.4907,-1.4911,0,0,0,0,0,-1.4432,-1.4475,-1.4475,-1.4488,-1.4558,-1.4609,-1.4618,-1.4633,-1.462,-1.4642,-1.4664,-1.4663,-1.4764,-1.4742,-1.4755,-1.4783,-1.4882,-1.4886,-1.489,-1.49,-1.4906,-1.4911,0,0,0,0,0,0,-1.4437,-1.4481,-1.4481,-1.4539,-1.457,-1.4609,-1.4637,-1.4639,-1.4675,-1.4673,-1.4691,-1.47,-1.4754,-1.4773,-1.4749,-1.484,-1.4822,-1.4828,-1.4825,-1.4831,-1.4836,-1.483,-1.474,0,0,0,0,0,-1.4445,-1.4482,-1.4518,-1.4565,-1.4581,-1.4606,-1.4629,-1.4638,-1.4671,-1.4685,-1.4711,-1.4743,-1.4782,-1.4808,-1.4845,-1.4904,-1.4914,-1.493,-1.4934,-1.4938,-1.4944,-1.4977,-1.4984,-1.4904,-1.4904,-1.4904,0,0,-1.4462,-1.449,-1.4512,-1.4567,-1.4592,-1.4631,-1.4618,-1.4659,-1.4688,-1.4691,-1.4743,-1.4764,-1.4801,-1.4858,-1.4884,-1.4876,-1.4968,-1.4943,-1.4945,-1.4949,-1.4981,-1.4989,-1.4995,-1.4906,-1.4906,-1.4905,0,0,-1.4512,-1.4536,-1.4579,-1.4604,-1.4642,-1.4659,-1.4669,-1.4708,-1.4721,-1.4774,-1.4777,-1.4812,-1.4879,-1.4905,-1.4928,-1.4988,-1.4989,-1.4999,-1.5024,-1.5056,-1.5063,-1.5069,-1.509,-1.5098,-1.5005,-1.5005,-1.5005,0,-1.4527,-1.4585,-1.46,-1.4642,-1.4666,-1.467,-1.4713,-1.4737,-1.4786,-1.4803,-1.4793,-1.4877,-1.4902,-1.4965,-1.498,-1.4998,-1.501,-1.4995,-1.5061,-1.5066,-1.5072,-1.5093,-1.5101,-1.5006,-1.5006,-1.5006,-1.5006,0,-1.4603,-1.4643,-1.4673,-1.4719,-1.4747,-1.4789,-1.481,-1.4836,-1.4843,-1.4861,-1.4914,-1.4945,-1.4989,-1.5005,-1.5012,-1.5069,-1.5063,-1.5057,-1.5039,-1.5081,-1.5101,-1.5109,-1.5007,-1.5007,-1.5007,-1.5006,0,0,-1.4659,-1.4713,-1.4724,-1.4745,-1.4787,-1.4819,-1.4861,-1.4904,-1.4926,-1.496,-1.4996,-1.5052,-1.5046,-1.5072,-1.5082,-1.511,-1.5156,-1.51,-1.5101,-1.511,-1.5221,-1.5226,-1.5235,-1.5156,-1.5158,-1.5159,-1.5218,0,-1.4714,-1.4789,-1.4803,-1.4869,-1.4906,-1.4911,-1.4948,-1.4978,-1.4996,-1.503,-1.505,-1.509,-1.5079,-1.5094,-1.5122,-1.5144,-1.5179,-1.514,-1.5191,-1.5193,-1.5182,-1.5246,-1.5251,-1.5305,-1.5226,-1.5227,-1.5228,0,-1.4788,-1.4823,-1.4892,-1.4929,-1.4946,-1.4979,-1.5019,-1.5052,-1.5086,-1.5097,-1.5125,-1.5132,-1.5177,-1.5157,-1.5219,-1.5192,-1.5214,-1.5228,-1.5231,-1.5236,-1.5213,-1.5254,-1.5323,-1.5331,-1.5241,-1.524,-1.5239,0,-1.4823,-1.4887,-1.4937,-1.4955,-1.4999,-1.5022,-1.5042,-1.5075,-1.51,-1.5135,-1.5152,-1.5192,-1.5214,-1.5245,-1.5263,-1.5247,-1.5324,-1.5305,-1.5335,-1.5334,-1.5351,-1.535,-1.5425,-1.5364,-1.5364,-1.5364,-1.5364,0,-1.4883,-1.4925,-1.4953,-1.4983,-1.5031,-1.5047,-1.5093,-1.5113,-1.5142,-1.5177,-1.5183,-1.5216,-1.5237,-1.5273,-1.5287,-1.5337,-1.5347,-1.5357,-1.536,-1.5357,-1.5356,-1.5372,-1.5369,-1.5366,-1.5366,-1.5365,-1.5365,0,-1.493,-1.495,-1.5004,-1.5042,-1.5052,-1.5086,-1.5118,-1.5148,-1.5166,-1.521,-1.5221,-1.5249,-1.5291,-1.5312,-1.5364,-1.5374,-1.543,-1.5431,-1.5418,-1.542,-1.5448,-1.5446,-1.5537,-1.555,-1.548,-1.548,-1.5481,0,-1.4968,-1.5,-1.5041,-1.5064,-1.5085,-1.5122,-1.5147,-1.5165,-1.5191,-1.5232,-1.5258,-1.53,-1.5335,-1.5403,-1.5428,-1.5468,-1.547,-1.55,-1.5477,-1.5472,-1.5471,-1.5469,-1.5473,-1.5504,-1.5505,-1.5505,-1.5506,0,-1.5032,-1.504,-1.5076,-1.5115,-1.5145,-1.5177,-1.5208,-1.5227,-1.5249,-1.5278,-1.5322,-1.5349,-1.5402,-1.5445,-1.5487,-1.5508,-1.5511,-1.5512,-1.5522,-1.5519,-1.551,-1.5516,-1.543,-1.5511,-1.551,-1.551,-1.5509,-1.5509,-1.5076,-1.5105,-1.5138,-1.5178,-1.5203,-1.5232,-1.5262,-1.5283,-1.5319,-1.5364,-1.5372,-1.5418,-1.5452,-1.5509,-1.5531,-1.5567,-1.5561,-1.5574,-1.5577,-1.558,-1.5582,-1.5504,-1.5575,-1.5575,-1.5575,-1.5575,-1.5575,0,-1.5142,-1.5163,-1.5199,-1.5242,-1.5274,-1.5273,-1.5307,-1.5334,-1.5374,-1.5405,-1.5439,-1.5489,-1.553,-1.5558,-1.56,-1.5623,-1.5626,-1.5634,-1.5633,-1.5638,-1.5585,-1.5574,-1.5631,-1.5631,-1.5631,-1.5631,-1.5631,-1.5631,-1.5179,-1.5229,-1.524,-1.5302,-1.5324,-1.5368,-1.5388,-1.5415,-1.544,-1.5495,-1.5529,-1.5546,-1.5577,-1.562,-1.5658,-1.5665,-1.5681,-1.5689,-1.5696,-1.5647,-1.5641,-1.5636,-1.5625,-1.5692,-1.5692,-1.5746,-1.5746,-1.5746]},{"header":{"parameterUnit":"m.s-1","parameterCategory":1,"la1":30.2991,"la2":30.254,"lo1":-89.0895,"lo2":-89.0444,"dy":0.0017,"dx":0.0017,"nx":28,"ny":28,"refTime":"2025-09-15T03:00:00:Z","depth":0,"parameterNumber":3,"parameterNumberName":"V-component_of_WINDS"},"data":[0,0,0,0,0,0,0,0,0,0,0,0,0,0,0,0,0,0,0,0,0,0,0,0,0,0,0,0,0,0,0,0,0,0,0,0,0,0,0,0,0,0,0,0,0,0,0,0,0,0,0,0,0,0,0,0,0,0,2.3774,2.3774,0,2.3771,2.3771,2.3771,2.3724,2.3723,2.3722,2.3721,2.3719,2.372,2.3721,0,0,0,0,0,0,0,0,0,0,0,0,0,2.3737,2.3738,2.3774,2.3774,2.3773,2.3771,2.3771,2.3771,2.3725,2.3723,2.3722,2.372,2.3718,2.372,2.3721,0,0,0,0,0,0,0,0,0,0,0,0,0,2.3745,2.3738,2.3774,2.375,2.3748,2.3771,2.3771,2.3771,2.3725,2.3723,2.3721,2.372,2.3718,2.3719,2.3721,2.3767,0,0,2.3726,2.3727,0,0,0,0,0,0,0,0,2.3745,2.3747,2.3753,2.3752,2.3749,2.3746,2.3757,2.377,2.3725,2.3734,2.3721,2.3719,2.3729,2.373,2.3733,2.3767,2.3767,2.3726,2.3727,2.3728,2.3728,0,0,0,0,0,0,0,2.3744,2.3747,2.3773,2.3754,2.3751,2.3739,2.3738,2.376,2.3742,2.3733,2.3729,2.373,2.3728,2.3732,2.3733,2.3767,2.3726,2.3727,2.3728,2.3729,2.3836,2.3837,0,0,0,0,0,0,2.3747,2.3746,2.3773,2.3773,2.3743,2.3741,2.3741,2.3749,2.3741,2.3738,2.3731,2.3728,2.373,2.3731,2.3733,2.3784,2.3728,2.3729,2.373,2.3834,2.3836,2.3838,0,0,0,0,0,0,2.3747,2.375,2.3773,2.3759,2.3761,2.3744,2.3754,2.375,2.3754,2.374,2.3737,2.3739,2.3729,2.373,2.3758,2.3783,2.373,2.3731,2.3832,2.3835,2.3837,2.3889,0,0,0,0,0,0,2.3746,2.375,2.3768,2.3759,2.3762,2.3799,2.3756,2.3751,2.3757,2.3752,2.3746,2.3744,2.3727,2.3756,2.376,2.3785,2.3733,2.3829,2.3833,2.3836,2.3885,2.3893,2.39,0,0,0,0,0,2.3745,2.3783,2.3769,2.3772,2.3783,2.38,2.3802,2.3782,2.3759,2.3776,2.3767,2.3744,2.3781,2.3759,2.3763,2.3789,2.3828,2.3832,2.3836,2.3881,2.3891,2.39,0,0,0,0,0,0,2.3794,2.3781,2.3765,2.3802,2.3803,2.3792,2.3813,2.3794,2.3801,2.3796,2.3772,2.3771,2.3802,2.3799,2.3775,2.3832,2.38,2.3805,2.3833,2.3842,2.385,2.3849,2.3734,0,0,0,0,0,2.381,2.3825,2.3813,2.3846,2.3847,2.383,2.3837,2.3822,2.3822,2.3822,2.3815,2.3815,2.3826,2.3835,2.3845,2.3884,2.3882,2.3904,2.3912,2.3918,2.3922,2.3941,2.395,2.3852,2.3852,2.3852,0,0,2.3841,2.3836,2.3847,2.3856,2.3854,2.387,2.3831,2.385,2.3861,2.3825,2.385,2.3845,2.3844,2.3877,2.3892,2.3875,2.3949,2.3923,2.3929,2.3929,2.3947,2.3956,2.3964,2.3855,2.3854,2.3854,0,0,2.3906,2.3905,2.3931,2.3931,2.3929,2.3917,2.3924,2.3917,2.3912,2.3937,2.3909,2.3922,2.3943,2.3943,2.3945,2.401,2.3988,2.4014,2.4053,2.4072,2.408,2.4087,2.4108,2.4116,2.4019,2.4019,2.4019,0,2.3946,2.3968,2.3948,2.3967,2.3971,2.3939,2.3966,2.3966,2.3968,2.3971,2.3953,2.3977,2.3974,2.4006,2.4022,2.4026,2.4032,2.4014,2.4081,2.4087,2.4093,2.4113,2.4121,2.4022,2.4021,2.4021,2.4021,0,2.4016,2.4032,2.4054,2.4055,2.4062,2.4085,2.4067,2.4077,2.4061,2.4052,2.4077,2.4072,2.408,2.4087,2.4072,2.4117,2.4106,2.4085,2.4052,2.4106,2.4124,2.4131,2.4026,2.4025,2.4024,2.4023,0,0,2.4112,2.4101,2.4109,2.4109,2.4104,2.4116,2.4138,2.4145,2.4152,2.4155,2.4171,2.4189,2.4169,2.4172,2.4157,2.4174,2.4223,2.415,2.415,2.4162,2.4269,2.4284,2.4293,2.4209,2.4211,2.4212,2.4269,0,2.4173,2.4208,2.419,2.4227,2.4241,2.421,2.4229,2.4228,2.422,2.423,2.4221,2.4233,2.4206,2.4208,2.4223,2.4214,2.4244,2.421,2.4223,2.4224,2.4222,2.4303,2.4319,2.4373,2.4276,2.4277,2.4278,0,2.4249,2.4253,2.4292,2.4283,2.4288,2.4305,2.4309,2.432,2.4318,2.4311,2.4314,2.4295,2.4315,2.4283,2.4309,2.4287,2.4291,2.4287,2.4289,2.4288,2.4253,2.4302,2.439,2.4397,2.4289,2.4288,2.4288,0,2.4312,2.4328,2.4353,2.4354,2.4345,2.4357,2.4354,2.4351,2.4356,2.436,2.4362,2.4369,2.4372,2.4378,2.4361,2.434,2.4389,2.4356,2.4382,2.4382,2.4392,2.4391,2.448,2.4399,2.4399,2.4398,2.4398,0,2.4381,2.4405,2.4381,2.4396,2.4422,2.4401,2.4427,2.4421,2.4418,2.443,2.4406,2.4418,2.4396,2.4406,2.4393,2.4416,2.4418,2.4412,2.4408,2.4413,2.4413,2.4414,2.4409,2.44,2.44,2.44,2.4399,0,2.4456,2.444,2.4465,2.4454,2.4452,2.4472,2.4462,2.4476,2.4466,2.4482,2.4485,2.4469,2.448,2.4464,2.4473,2.4464,2.4495,2.4486,2.4495,2.4492,2.4518,2.4515,2.4608,2.4618,2.4533,2.4533,2.4534,0,2.45,2.4517,2.4508,2.4515,2.4513,2.4524,2.4529,2.4509,2.4515,2.4513,2.4526,2.4535,2.454,2.4559,2.4548,2.4555,2.4545,2.4577,2.4546,2.455,2.4543,2.4541,2.4542,2.4583,2.4584,2.4585,2.4585,0,2.4579,2.457,2.4578,2.4582,2.4588,2.4591,2.4592,2.4599,2.4578,2.4586,2.4596,2.46,2.4609,2.4617,2.4621,2.4618,2.4598,2.4596,2.4601,2.4606,2.461,2.4606,2.451,2.4593,2.4592,2.4592,2.4591,2.4591,2.4638,2.4652,2.4647,2.4656,2.4654,2.4656,2.4667,2.4658,2.4666,2.4671,2.4659,2.4672,2.4668,2.4671,2.467,2.468,2.4666,2.4675,2.4677,2.4679,2.4682,2.461,2.4681,2.4681,2.468,2.468,2.468,0,2.4714,2.4709,2.4718,2.4719,2.4726,2.4707,2.4707,2.4714,2.4725,2.4724,2.4729,2.474,2.4748,2.4738,2.4744,2.4754,2.4744,2.4756,2.4754,2.4753,2.4695,2.4688,2.4763,2.4763,2.4763,2.4763,2.4763,2.4763,2.4754,2.4776,2.4766,2.4786,2.4782,2.4793,2.4795,2.4796,2.4794,2.4807,2.4813,2.4807,2.4801,2.4807,2.4813,2.481,2.4812,2.4826,2.482,2.4765,2.4757,2.4749,2.4743,2.4827,2.4827,2.4876,2.4877,2.4877]}]]